Retour au catalogue

CZ-4 DEB

ActifPO
NORAD 26122·DEBRIS·🇨🇳 China

Lancé Oct 14, 1999 depuis Taiyuan Satellite Launch Center

Loading…

Prochains Passages (prochaines 24 heures)

TLE

FraisSource: Space-Track

Époque: Sep 14, 2026, 14:46 UTC

1 26122U 99057J   26257.61577501  .00001742  00000-0  13552-2 0  9999
2 26122  98.9456  11.8886 0525224 193.1411 181.8756 13.43347432291998

Suivez CZ-4 DEB en temps réel avec AllMySat

Download on the App Store